Wind_Speed
18 22 23 26 30 35 19 4 1 15 11 4 2 2 4 2 2 1 1 2 3 3 4 5 3 4 4 8 7 3 3 2 5 4 2 2 2 2 5 4 5 1 3 8
21 20 21 23 27 31 12 2 2 11 8 4 4 4 3 2 2 2 1 2 4 1 3 5 6 4 2 8 8 6 7 3 5 3 2 1 5 5 2 2 2 8 5 5
20 18 20 22 24 27 9 2 3 4 4 2 1 4 1 5 1 3 3 4 2 3 4 6 5 4 2 8 7 6 8 5 10 10 7 4 5 7 10 9 5 7 11 13
21 17 19 22 24 20 6 5 2 2 4 3 2 2 2 3 5 2 3 3 7 4 4 9 9 5 3 7 7 6 5 6 11 17 18 15 17 20 15 16 22 10 12 9
22 18 20 22 25 16 9 3 3 1 2 2 5 0 2 2 3 3 5 5 5 4 8 12 22 20 16 12 6 10 6 4 2 6 16 17 21 24 20 23 21 23 23 27
22 20 20 22 23 18 6 4 1 1 0 1 3 2 3 6 11 6 10 11 13 17 18 10 13 13 13 14 7 12 7 4 2 8 2 13 16 20 17 13 8 16 16 14
24 22 22 24 24 21 9 4 1 2 3 2 3 6 10 11 7 13 16 13 11 2 7 14 13 15 14 12 12 11 6 4 3 8 8 7 2 7 7 16 9 18 15 13
24 21 20 22 22 21 14 5 2 1 5 4 6 9 10 12 9 9 9 7 2 6 5 6 7 4 3 4 4 7 5 6 4 4 5 12 13 3 3 4 3 19 15 14
25 24 22 20 19 20 16 7 4 1 3 3 3 8 5 7 6 3 5 1 3 2 3 2 4 4 5 2 1 4 3 1 7 3 5 5 4 2 0 2 8 1 11 2
23 23 21 22 20 19 17 11 6 3 3 3 2 4 6 1 3 4 4 5 3 3 2 3 2 3 2 4 5 1 2 4 13 12 7 8 8 3 3 4 2 6 8 3
25 24 23 21 20 19 17 13 14 4 2 5 2 2 4 2 2 4 7 3 3 1 3 2 3 3 3 4 4 4 5 4 4 5 6 8 2 3 3 4 6 6 6 9
26 26 27 26 23 22 19 9 11 8 5 4 7 5 3 4 3 2 2 2 2 2 2 2 2 5 3 5 5 1 2 5 5 6 7 13 3 4 3 3 5 10 7 4
29 29 30 30 27 25 19 11 11 4 3 3 2 1 1 1 2 4 2 2 4 2 4 3 3 6 2 3 3 6 6 1 5 9 4 16 15 14 12 8 13 11 7 8
32 32 33 34 31 25 15 9 5 4 5 2 2 2 6 5 5 3 6 2 1 1 1 3 3 4 1 2 2 5 6 6 9 17 18 16 14 9 10 14 8 7 9 9
34 35 35 34 28 14 5 6 9 3 2 3 4 6 3 6 6 6 4 3 1 1 2 3 3 3 3 1 2 3 1 6 6 12 24 18 20 12 15 10 11 13 13 12
36 38 35 26 17 9 2 2 8 12 4 1 3 3 3 5 7 8 6 2 2 1 1 1 2 1 2 3 3 5 4 9 14 9 20 18 17 18 17 15 15 12 10 8
38 36 29 13 11 10 8 3 9 11 5 0 2 5 1 5 4 1 3 3 2 1 1 1 2 2 3 2 3 8 14 16 19 13 17 11 8 8 12 7 9 12 10 9
39 33 18 4 6 4 6 14 11 3 2 3 1 3 4 5 4 3 3 2 1 3 2 1 2 3 2 3 9 14 14 18 14 16 12 12 14 9 9 11 10 9 8 7
34 25 1 1 4 5 6 10 5 5 2 2 1 2 4 4 2 1 1 1 2 0 1 1 3 2 4 9 11 14 16 14 19 18 12 14 13 11 8 9 10 9 9 9
23 11 3 2 2 9 7 2 2 3 4 2 1 1 4 1 3 2 3 2 2 2 0 2 2 3 8 12 13 12 14 13 15 17 18 18 16 15 16 14 12 12 11 11
11 6 2 5 10 2 3 1 2 2 2 1 1 3 4 2 2 2 2 2 2 2 1 3 2 3 3 9 14 13 11 11 11 12 12 14 14 15 16 16 15 16 16 13
16 14 14 4 4 1 2 2 2 0 2 1 2 3 2 1 0 0 2 2 2 3 3 2 3 4 6 9 13 15 14 12 11 17 16 19 20 20 17 15 15 18 19 17
6 2 2 2 1 2 2 2 2 2 2 3 2 4 1 2 1 1 0 2 4 2 1 3 5 3 7 14 15 16 21 8 17 20 21 22 20 19 18 16 19 17 14 11
2 3 5 1 2 4 4 4 3 3 3 3 1 2 2 0 1 1 2 0 1 2 3 5 2 4 14 17 14 10 13 17 17 16 21 21 19 18 18 16 13 13 11 8
2 1 4 5 3 3 2 1 3 3 1 1 1 0 1 1 2 1 2 2 4 4 4 3 5 12 14 11 14 14 14 13 13 18 16 19 20 17 16 14 13 12 9 6
1 4 4 2 2 3 1 3 4 2 3 2 1 1 1 2 1 2 5 2 5 3 3 5 11 10 10 13 14 15 18 17 16 18 18 18 16 15 15 12 9 9 8 6
3 4 4 3 3 5 3 3 2 6 2 2 2 0 4 1 2 3 4 4 4 7 8 8 7 13 12 12 16 18 19 18 18 18 18 15 13 12 9 7 9 7 7 7
Wind_Direction
344 344 341 348 349 351 346 346 30 352 9 40 36 31 321 328 295 171 240 252 269 282 306 278 268 262 244 171 163 191 177 186 259 246 69 12 333 270 213 239 178 215 312 270
339 351 353 350 352 353 349 15 315 2 25 56 11 332 312 282 294 288 261 258 220 213 270 291 237 255 95 169 182 180 177 212 293 202 161 170 232 191 208 51 4 215 237 249
356 357 357 353 356 353 1 359 3 27 52 36 39 348 349 321 228 269 258 273 232 241 244 223 283 261 182 195 219 208 181 226 230 263 320 114 202 198 201 203 222 242 231 264
9 10 10 10 4 3 20 14 51 43 352 31 349 229 310 320 344 240 232 240 236 225 278 295 262 264 240 204 217 211 214 248 242 254 270 260 258 257 200 206 224 234 265 242
24 21 18 17 15 12 57 25 348 112 297 286 307 325 220 288 318 295 282 243 290 246 263 262 284 290 287 268 180 194 202 268 274 272 261 257 266 262 249 222 238 244 255 275
32 26 27 22 26 34 58 27 61 266 14 326 311 338 319 310 324 268 257 284 299 288 286 288 278 274 261 258 231 203 194 227 258 274 329 294 275 259 242 213 204 225 231 243
26 26 23 27 27 30 35 25 328 337 295 277 281 303 297 289 292 279 289 295 281 297 300 282 262 255 261 262 253 242 204 197 229 289 304 247 69 303 258 217 215 209 241 256
19 23 23 24 17 18 19 25 358 16 291 279 293 306 305 301 284 274 286 273 277 336 306 304 308 284 182 69 48 227 227 209 246 259 238 309 299 94 137 185 248 219 227 257
11 11 12 16 2 353 349 340 350 228 292 246 285 312 305 309 324 272 246 309 352 307 291 259 283 305 324 334 1 56 113 254 222 188 255 261 33 87 320 226 267 71 179 207
5 5 5 9 3 356 337 307 291 241 260 263 214 297 317 292 272 274 308 340 342 350 344 287 299 279 277 296 303 195 192 216 224 234 260 275 288 243 164 243 47 118 163 237
356 355 353 354 352 350 333 303 298 266 254 291 251 297 292 293 269 313 357 293 31 20 10 320 355 286 342 290 268 221 224 205 207 211 235 274 72 54 243 352 355 47 319 276
350 350 349 346 342 341 333 300 301 287 225 285 299 290 285 239 245 252 332 310 262 232 274 215 281 278 256 274 287 121 273 237 302 220 267 309 284 270 263 268 290 302 286 315
345 345 345 342 336 332 326 303 298 263 248 248 274 116 130 340 189 230 257 240 2 8 0 327 287 266 288 277 316 332 315 272 262 312 280 289 299 295 274 265 265 271 240 258
341 341 341 338 333 327 317 309 299 291 292 280 70 348 286 255 234 225 234 254 77 94 251 255 259 264 220 308 304 302 339 318 297 281 288 301 280 293 291 300 245 259 261 243
341 339 339 339 341 338 6 74 58 36 347 322 321 309 283 278 287 273 272 264 179 214 228 225 249 300 319 294 278 254 213 299 314 312 309 287 284 284 295 274 269 278 280 270
340 340 340 343 356 349 84 110 34 27 34 296 332 311 293 332 293 285 314 202 170 195 290 278 288 253 285 301 280 268 260 285 296 297 311 292 279 288 281 268 275 287 279 269
337 337 341 347 13 70 57 7 314 334 346 186 308 322 351 315 302 55 76 66 72 337 26 305 318 304 303 276 267 288 302 307 311 296 330 334 323 316 313 283 287 289 286 275
337 335 345 68 358 358 18 8 3 4 78 48 55 298 306 8 320 337 20 58 63 40 350 274 315 296 273 258 255 300 299 311 310 333 327 327 319 312 325 328 325 309 284 269
335 337 339 332 25 15 330 332 348 31 53 99 72 326 319 348 292 312 111 338 28 272 288 286 318 269 235 248 286 300 315 317 321 326 322 336 336 332 332 336 326 306 318 336
336 337 4 29 350 323 280 307 351 14 356 42 229 151 306 337 344 312 337 10 5 319 349 299 227 260 264 274 276 291 307 310 323 328 337 335 337 338 334 334 332 328 327 319
352 338 321 311 335 339 27 346 23 333 338 191 252 230 299 40 284 304 27 331 339 298 49 320 251 259 266 303 317 309 302 297 307 303 306 316 319 322 323 325 327 325 322 321
315 287 295 307 17 21 28 0 308 252 278 251 251 322 235 12 17 261 17 312 345 262 338 297 257 246 253 324 309 319 310 299 316 328 323 323 323 323 321 320 322 322 320 321
323 8 26 3 345 27 98 310 282 283 215 244 308 318 349 165 112 88 25 255 235 320 248 247 245 285 305 329 323 316 322 326 329 325 328 326 322 324 327 323 325 327 327 335
37 21 314 217 273 239 196 201 213 239 227 280 302 272 292 341 251 176 262 242 289 273 250 242 273 284 328 322 330 352 359 336 323 321 327 328 329 327 326 328 328 332 338 347
263 123 249 228 266 258 259 290 284 227 234 203 243 206 289 260 277 238 304 278 257 232 248 263 321 325 322 359 347 337 330 328 338 328 325 326 330 329 324 331 331 332 333 349
219 232 252 215 310 266 240 216 259 183 140 126 85 114 337 258 229 246 226 220 238 264 248 303 319 341 348 343 341 336 336 333 332 333 331 330 334 332 326 330 349 351 359 23
223 241 234 232 282 253 252 203 226 152 150 209 138 280 239 78 242 250 198 223 245 318 309 313 13 346 344 341 338 339 337 338 338 334 333 337 337 335 352 3 3 17 35 58
Height
859 855 850 845 838 829 823 821 812 816 810 814 829 827 834 834 830 834 832 832 827 822 820 812 807 805 806 815 822 819 826 825 815 811 860 862 852 828 821 797 808 850 835 772
858 854 850 846 840 833 828 827 826 819 814 824 830 833 834 834 830 829 828 825 826 827 822 817 807 805 816 817 817 819 824 818 801 803 847 855 842 840 842 847 835 814 785 741
858 855 852 847 842 836 831 829 823 826 831 845 841 843 833 830 832 830 830 826 828 826 820 817 812 809 814 819 817 817 817 810 794 770 769 803 822 828 842 825 810 779 789 750
860 858 853 849 844 838 835 839 846 851 835 836 846 849 845 834 830 831 830 823 824 822 821 811 806 808 810 817 815 813 815 816 803 798 793 795 794 788 816 826 793 794 752 775
863 860 856 852 847 842 840 843 847 852 846 849 843 844 836 836 833 833 824 827 817 823 822 816 812 807 807 804 814 813 817 808 813 809 788 787 786 775 775 799 794 786 777 776
867 863 858 854 851 847 849 853 853 851 842 845 841 834 835 832 835 825 826 825 824 821 814 815 811 809 807 802 803 807 814 810 809 782 794 786 764 746 753 762 783 779 780 758
872 869 864 859 857 855 855 855 855 851 838 843 837 837 836 836 833 832 823 824 824 819 820 815 808 806 805 808 807 804 809 816 808 789 790 767 734 743 749 747 760 768 761 757
877 874 868 864 862 859 856 855 854 853 845 841 837 834 834 830 830 830 825 821 822 824 820 809 798 781 800 814 815 811 810 808 803 798 787 750 725 752 753 751 732 745 755 754
880 876 872 867 865 863 860 857 855 854 852 835 838 835 833 831 828 828 822 823 824 824 818 814 807 793 786 788 810 816 816 817 805 811 798 760 737 754 758 757 735 743 750 749
880 877 873 869 866 863 860 856 854 853 850 839 839 837 835 840 835 829 823 827 824 826 821 813 810 800 811 792 799 811 812 811 805 799 793 768 747 756 760 752 740 747 751 755
881 877 873 869 865 861 858 855 853 854 850 842 839 840 837 836 836 830 829 825 827 828 826 826 819 817 806 812 801 805 802 804 802 800 796 776 764 768 763 760 755 752 757 754
882 877 872 867 863 860 856 852 851 850 851 842 839 839 839 840 839 840 837 837 836 831 827 832 829 815 808 804 794 809 799 793 787 792 766 753 766 761 763 764 760 755 756 751
880 875 870 865 860 856 853 848 847 846 845 840 837 838 840 839 838 838 838 833 836 837 839 833 827 822 813 804 794 800 792 801 791 789 763 763 761 759 758 758 756 753 751 749
878 873 867 860 855 850 847 846 845 846 844 837 837 839 838 837 835 836 837 838 839 840 839 834 828 820 817 807 814 808 797 799 786 778 768 762 755 753 754 751 750 751 747 744
876 871 864 856 849 844 844 844 845 845 848 841 837 839 837 836 836 836 836 838 839 838 836 834 827 824 822 818 820 807 798 795 788 778 771 766 753 752 752 751 745 743 740 737
874 868 861 854 850 846 845 845 848 847 846 845 842 840 836 835 833 833 834 835 837 838 836 833 833 836 831 820 813 798 796 795 787 779 769 758 751 749 745 742 739 737 735 733
871 865 859 854 851 848 850 855 852 849 847 846 842 837 836 834 831 831 834 837 839 839 838 837 836 832 830 823 814 799 794 789 782 776 768 754 749 746 742 739 736 734 732 730
868 862 856 854 853 852 853 853 851 849 848 848 848 840 837 836 830 828 837 838 839 841 840 838 836 832 830 821 805 799 793 786 778 772 768 763 755 748 743 739 736 734 731 727
865 858 856 856 855 855 856 854 852 850 852 849 852 848 840 838 833 835 837 839 834 844 838 837 838 827 822 808 800 797 790 785 776 768 764 759 754 747 743 740 737 734 727 721
863 858 856 857 859 856 856 854 853 851 853 852 847 853 842 845 837 831 835 840 839 834 839 841 835 822 811 808 803 795 789 784 777 768 759 754 750 746 741 738 734 730 725 722
864 861 859 858 856 856 855 854 853 857 851 852 848 849 844 845 843 840 848 844 842 836 833 835 824 815 802 795 792 789 783 780 776 772 765 759 754 747 741 735 733 728 724 721
868 865 860 858 858 858 857 862 858 854 845 847 844 842 846 847 849 847 850 846 850 835 843 837 820 800 793 790 787 780 776 773 771 768 762 757 752 747 742 737 732 728 724 720
862 862 861 860 862 856 851 862 852 853 849 845 844 842 845 847 849 850 851 847 840 848 841 819 802 789 791 784 779 773 769 769 767 762 759 755 750 746 742 737 732 727 722 719
866 869 867 862 856 855 849 846 845 843 845 842 847 845 844 844 844 848 843 841 848 834 832 808 794 792 785 779 776 773 772 770 763 758 755 751 747 743 739 735 731 727 723 721
865 869 864 860 848 851 849 852 850 844 845 845 845 847 847 843 845 844 846 840 830 823 808 797 793 788 783 781 780 777 772 767 763 759 754 749 745 740 736 733 730 727 724 722
864 862 857 854 855 844 850 849 845 841 843 846 846 848 848 844 845 845 837 837 824 804 804 796 789 786 788 785 783 779 774 769 763 759 754 750 745 740 736 733 731 728 726 724
857 849 848 849 848 842 838 838 836 838 839 837 846 849 839 849 841 837 833 822 803 797 796 791 791 791 789 787 784 779 774 768 763 759 754 750 746 742 738 734 732 730 728 727